• In Germany
  • List of Countries
  • For 7 days
  • Water Temperature
  • Satellite Maps
  • Weather Map
  • Weather Widgets
  • user-avatar
    Login

    Hourly Weather Baraki Barak

    Today, 16 August, Wednesday

    Time Temperature Precipitation Wind Pressure Humidity
    00:00 +24°C° 0 mm 2 mps 598 mmHg 31%
    01:00 +23°C° 0 mm 1 mps 597 mmHg 33%
    02:00 +22°C° 0 mm 1 mps 597 mmHg 35%
    03:00 +22°C° 0 mm 1 mps 597 mmHg 36%
    04:00 +21°C° 0 mm 1 mps 596 mmHg 36%
    05:00 +20°C° 0 mm 1 mps 596 mmHg 36%
    06:00 +21°C° 0 mm 1 mps 597 mmHg 31%
    07:00 +20°C° 0 mm 0 mps 597 mmHg 27%
    08:00 +21°C° 0 mm 0 mps 598 mmHg 22%
    09:00 +24°C° 0 mm 1 mps 598 mmHg 20%
    10:00 +26°C° 0 mm 1 mps 599 mmHg 17%
    11:00 +27°C° 0 mm 1 mps 599 mmHg 16%
    12:00 +28°C° 0 mm 1 mps 599 mmHg 14%
    13:00 +29°C° 0 mm 1 mps 599 mmHg 13%
    14:00 +30°C° 0 mm 1 mps 599 mmHg 11%
    15:00 +30°C° 0 mm 2 mps 599 mmHg 11%
    16:00 +30°C° 0 mm 2 mps 599 mmHg 10%
    17:00 +30°C° 0 mm 2 mps 599 mmHg 10%
    18:00 +29°C° 0 mm 3 mps 599 mmHg 12%
    19:00 +28°C° 0 mm 3 mps 599 mmHg 14%
    20:00 +27°C° 0 mm 4 mps 598 mmHg 16%
    21:00 +26°C° 0 mm 3 mps 598 mmHg 18%
    22:00 +25°C° 0 mm 3 mps 598 mmHg 20%
    23:00 +24°C° 0 mm 2 mps 598 mmHg 21%

    Tomorrow, 17 August, Thursday

    Time Temperature Precipitation Wind Pressure Humidity
    00:00 +23°C° 0 mm 2 mps 597 mmHg 22%
    01:00 +21°C° 0 mm 2 mps 597 mmHg 23%
    02:00 +21°C° 0 mm 2 mps 597 mmHg 24%
    03:00 +20°C° 0 mm 2 mps 596 mmHg 24%
    04:00 +20°C° 0 mm 2 mps 596 mmHg 25%
    05:00 +19°C° 0 mm 2 mps 596 mmHg 25%
    06:00 +20°C° 0 mm 2 mps 597 mmHg 23%
    07:00 +21°C° 0 mm 2 mps 597 mmHg 21%
    08:00 +21°C° 0 mm 2 mps 597 mmHg 18%
    09:00 +24°C° 0 mm 2 mps 598 mmHg 17%
    10:00 +25°C° 0 mm 2 mps 598 mmHg 15%
    11:00 +26°C° 0 mm 2 mps 598 mmHg 13%
    12:00 +27°C° 0 mm 2 mps 598 mmHg 12%
    13:00 +28°C° 0 mm 2 mps 598 mmHg 11%
    14:00 +29°C° 0 mm 2 mps 598 mmHg 10%
    15:00 +29°C° 0 mm 2 mps 598 mmHg 10%
    16:00 +30°C° 0 mm 2 mps 598 mmHg 9%
    17:00 +30°C° 0 mm 2 mps 598 mmHg 9%
    18:00 +29°C° 0 mm 2 mps 598 mmHg 10%
    19:00 +28°C° 0 mm 3 mps 598 mmHg 12%
    20:00 +27°C° 0 mm 3 mps 598 mmHg 13%
    21:00 +26°C° 0 mm 3 mps 598 mmHg 15%
    22:00 +25°C° 0 mm 2 mps 598 mmHg 17%
    23:00 +24°C° 0 mm 2 mps 598 mmHg 18%

    Day after tomorrow, 18 August, Friday

    Time Temperature Precipitation Wind Pressure Humidity
    00:00 +23°C° 0 mm 2 mps 597 mmHg 19%
    01:00 +23°C° 0 mm 2 mps 597 mmHg 20%
    02:00 +21°C° 0 mm 2 mps 597 mmHg 21%
    03:00 +21°C° 0 mm 1 mps 596 mmHg 21%
    04:00 +21°C° 0 mm 1 mps 596 mmHg 21%
    05:00 +20°C° 0 mm 1 mps 596 mmHg 21%
    06:00 +21°C° 0 mm 1 mps 597 mmHg 19%
    07:00 +22°C° 0 mm 1 mps 597 mmHg 17%
    08:00 +23°C° 0 mm 1 mps 598 mmHg 15%
    09:00 +24°C° 0 mm 1 mps 599 mmHg 14%
    10:00 +26°C° 0 mm 1 mps 599 mmHg 12%
    11:00 +27°C° 0 mm 1 mps 599 mmHg 11%
    12:00 +28°C° 0 mm 1 mps 599 mmHg 10%
    13:00 +29°C° 0 mm 1 mps 599 mmHg 10%
    14:00 +30°C° 0 mm 2 mps 600 mmHg 9%
    15:00 +31°C° 0 mm 2 mps 599 mmHg 9%
    16:00 +31°C° 0 mm 2 mps 599 mmHg 9%
    17:00 +31°C° 0 mm 2 mps 599 mmHg 8%
    18:00 +30°C° 0 mm 2 mps 599 mmHg 10%
    19:00 +29°C° 0 mm 2 mps 599 mmHg 12%
    20:00 +28°C° 0 mm 2 mps 599 mmHg 14%
    21:00 +27°C° 0 mm 2 mps 599 mmHg 16%
    22:00 +26°C° 0 mm 2 mps 599 mmHg 18%
    23:00 +25°C° 0 mm 2 mps 598 mmHg 21%

    19 August, Saturday

    Time Temperature Precipitation Wind Pressure Humidity
    00:00 +24°C° 0 mm 1 mps 598 mmHg 23%
    01:00 +23°C° 0 mm 1 mps 598 mmHg 25%
    02:00 +23°C° 0 mm 1 mps 597 mmHg 28%
    03:00 +22°C° 0 mm 1 mps 597 mmHg 29%
    04:00 +21°C° 0 mm 1 mps 597 mmHg 29%
    05:00 +21°C° 0 mm 1 mps 597 mmHg 30%
    06:00 +22°C° 0 mm 1 mps 598 mmHg 28%
    07:00 +23°C° 0 mm 1 mps 598 mmHg 25%
    08:00 +24°C° 0 mm 1 mps 599 mmHg 23%
    09:00 +25°C° 0 mm 1 mps 599 mmHg 20%
    10:00 +26°C° 0 mm 1 mps 600 mmHg 17%
    11:00 +28°C° 0 mm 1 mps 600 mmHg 15%
    12:00 +29°C° 0 mm 1 mps 600 mmHg 14%
    13:00 +30°C° 0 mm 2 mps 600 mmHg 12%
    14:00 +31°C° 0 mm 2 mps 600 mmHg 11%
    15:00 +31°C° 0 mm 2 mps 600 mmHg 10%
    16:00 +31°C° 0 mm 2 mps 600 mmHg 10%
    17:00 +31°C° 0 mm 3 mps 600 mmHg 9%
    18:00 +30°C° 0 mm 3 mps 600 mmHg 11%
    19:00 +29°C° 0 mm 3 mps 600 mmHg 12%
    20:00 +28°C° 0 mm 3 mps 600 mmHg 13%
    21:00 +27°C° 0 mm 3 mps 600 mmHg 16%
    22:00 +26°C° 0 mm 2 mps 599 mmHg 19%
    23:00 +25°C° 0 mm 2 mps 599 mmHg 22%

    20 August, Sunday

    Time Temperature Precipitation Wind Pressure Humidity
    00:00 +24°C° 0 mm 2 mps 599 mmHg 24%
    01:00 +23°C° 0 mm 2 mps 598 mmHg 26%
    02:00 +23°C° 0 mm 1 mps 598 mmHg 29%
    03:00 +22°C° 0 mm 1 mps 598 mmHg 29%
    04:00 +22°C° 0 mm 1 mps 598 mmHg 30%
    05:00 +21°C° 0 mm 1 mps 597 mmHg 30%
    06:00 +22°C° 0 mm 1 mps 598 mmHg 28%
    07:00 +23°C° 0 mm 1 mps 599 mmHg 25%
    08:00 +24°C° 0 mm 1 mps 599 mmHg 22%
    09:00 +25°C° 0 mm 1 mps 599 mmHg 20%
    10:00 +26°C° 0 mm 1 mps 600 mmHg 17%
    11:00 +27°C° 0 mm 1 mps 600 mmHg 15%
    12:00 +28°C° 0 mm 1 mps 600 mmHg 13%
    13:00 +29°C° 0 mm 2 mps 600 mmHg 12%
    14:00 +30°C° 0 mm 2 mps 600 mmHg 11%
    15:00 +30°C° 0 mm 2 mps 600 mmHg 11%
    16:00 +31°C° 0 mm 2 mps 600 mmHg 11%
    17:00 +31°C° 0 mm 2 mps 599 mmHg 10%
    18:00 +30°C° 0 mm 3 mps 599 mmHg 13%
    19:00 +28°C° 0 mm 4 mps 599 mmHg 16%
    20:00 +27°C° 0 mm 4 mps 599 mmHg 19%
    21:00 +26°C° 0.1 mm 4 mps 599 mmHg 21%
    22:00 +25°C° 0.1 mm 3 mps 599 mmHg 24%
    23:00 +24°C° 0.1 mm 2 mps 598 mmHg 26%

    21 August, Monday

    Time Temperature Precipitation Wind Pressure Humidity
    00:00 +23°C° 0 mm 2 mps 598 mmHg 27%
    01:00 +23°C° 0 mm 2 mps 598 mmHg 28%
    02:00 +21°C° 0 mm 2 mps 597 mmHg 29%
    03:00 +21°C° 0 mm 2 mps 597 mmHg 29%
    04:00 +20°C° 0 mm 2 mps 597 mmHg 29%
    05:00 +19°C° 0 mm 2 mps 597 mmHg 29%
    06:00 +20°C° 0 mm 2 mps 598 mmHg 27%
    07:00 +21°C° 0 mm 2 mps 598 mmHg 26%
    08:00 +21°C° 0 mm 2 mps 598 mmHg 24%
    09:00 +24°C° 0 mm 2 mps 599 mmHg 23%
    10:00 +25°C° 0 mm 1 mps 599 mmHg 21%
    11:00 +26°C° 0 mm 1 mps 599 mmHg 20%
    12:00 +27°C° 0 mm 1 mps 599 mmHg 18%
    13:00 +28°C° 0 mm 1 mps 599 mmHg 16%
    14:00 +29°C° 0 mm 2 mps 599 mmHg 14%
    15:00 +30°C° 0.1 mm 2 mps 599 mmHg 14%
    16:00 +30°C° 0.1 mm 2 mps 598 mmHg 13%
    17:00 +30°C° 0.1 mm 2 mps 598 mmHg 13%
    18:00 +29°C° 0.1 mm 3 mps 598 mmHg 15%
    19:00 +28°C° 0.1 mm 3 mps 598 mmHg 17%
    20:00 +27°C° 0.1 mm 3 mps 598 mmHg 19%
    21:00 +26°C° 0.1 mm 3 mps 598 mmHg 21%
    22:00 +25°C° 0.1 mm 3 mps 598 mmHg 24%
    23:00 +24°C° 0.1 mm 2 mps 598 mmHg 26%
    Show more